Location: Andrest
(43.3200°N, 0.0641°E)
Time: 20:14:28
(UTC+00:00)

Cosmos 2237 Rocket - Pass Details

Date: 01 December 2020
Orbit: 833 x 851 km, 71.0° (Epoch: 21 January)

Event Time Altitude Azimuth Distance (km) Brightness Sun altitude
Rises 17:40:48 0° 251° (WSW) 3,375 7.4 -13.4°
Reaches altitude 10° 17:44:00 10° 269° (W) 2,447 5.9 -14.0°
Maximum altitude 17:47:51 19° 313° (NW) 1,920 4.4 -14.7°
Drops below altitude 10° 17:51:43 10° 356° (N) 2,462 4.5 -15.3°
Enters shadow 17:54:52 - 15° (NNE) 3,370 5.0 -15.9°
